カタログに戻る

ARIANE 2 R/B

運用中GTO
NORAD 19773·ROCKET BODY·🇫🇷 France

打ち上げ Jan 27, 1989 から Guiana Space Centre

Loading…

TLE

経年Source: Space-Track

元期: Sep 14, 2026, 17:52 UTC

1 19773U 89006B   26257.74489576  .00000312  00000-0  28176-2 0  9994
2 19773   8.5333  15.5409 7170551 193.1106 126.8601  2.29310014312723

AllMySatでARIANE 2 R/Bをリアルタイム追跡

Download on the App Store